Location: Nemiskam
(49.4820°N, 111.2775°W)
Time: 10:04:15
(UTC+00:00)

Envisat - Pass Details

Date: 02 December 2022
Orbit: 763 x 765 km, 98.2° (Epoch: 28 January)

Event Time Altitude Azimuth Distance (km) Brightness Sun altitude
Rises 11:37:04 0° 15° (NNE) 3,246 6.5 -32.2°
Reaches altitude 10° 11:39:24 10° 18° (NNE) 2,315 5.7 -31.8°
Enters shadow 11:41:54 29° 25° (NNE) 1,374 4.4 -31.4°
